STARLINK-32118, 60280

Orbit data source: Space-Track

STARLINK-32118, 60280 is a payload satellite owned by SpaceX/Seattle (US) in LEO that was launched on Sun, 28 Jul 2024 UTC via an FALCON 9 launch vehicle from the Air Force Eastern Test Range (AFETR). Payload-class satellites include a variety of spacecraft equipped with specific instruments for various scientific and technological missions. These include communications satellites like Starlink; space stations such as the ISS; scientific satellites like the Hubble; Earth observation satellites from companies like Planet Labs, Umbra, and HawkEye 360; GPS; miniature CubeSats for education and research; and military/defense satellites.

Loading next visibility...
Identifier
60280, 2024-132C
Orbit
LEO
Country
Flag of USUS
Related business
Manufacturer
SpaceX/Seattle
Mission
Operational Commercial Communications
Bus & Motor
STARLINK V2M, Unknown motor
Mass
730 kg wet, ~700 kg dry
Launch date (UTC)
2024-07-28 (1 year ago)
Launch vehicle
FALCON 9
Launch site
Air Force Eastern Test Range (AFETR)
Object type
Payload
Rocket body
Debris
Shape & HBR
Box + 2 Pan, 17.7 m
Radar Cross Section
33.884 m², Large (>1 m²)

Expand to show TLE details & history
Last TLE update: 7 hours ago

TLE from 7 hours ago
0 STARLINK-32118
1 60280U 24132C   25303.26286632  .00001319  00000-0  56651-4 0  9997
2 60280  53.1600 298.0969 0001377  88.9983 271.1175 15.30194986 71591
Epoch: 2025-10-30T06:18Z
TLE epoch observation values (Epoch: 2025-10-30T06:18:31.650Z)
Latitude
-0.00004°
Longitude
164.64083°
Altitude
476.111 km
Speed
7.629 km/s
True Right ascension
19h 52m 23s
True Declination
0° 00' 00"
Sunlit
Object was in daylight at epoch
Visualization orbit readout
Latitude
Unknown
Longitude
Unknown
Altitude
Unknown
Speed
Unknown
Apparent Right ascension
Unknown
Apparent Declination
Unknown
Sunlit
N/A
Visualization observer readout
Local Sidereal Time
09:01:17
Azimuth
Unknown
Elevation
Unknown
Doppler factor
Unknown
Orbital elements
Apogee altitude
476.43 km
Perigee altitude
474.543 km
Semi-major axis
6,853.623 km
Eccentricity
0.00014
Inclination
53.16°
RAAN
298.0969°
Arg. of periapsis
88.9983°
True anomaly
271.10172°
Mean anomaly
271.1175°
Eccentric anomaly
271.10961°
Mean motion
3.82528 °/min
Orbital period
94.11 mins
BSTAR
0.000056651
Loading maneuver chart data...
Computing Atmospheric mass density...
Loading historical data...
Loading historical data...
Loading historical data...
Loading historical data...
Loading historical data...
Loading historical data...
Loading historical data...

Documentation

Showing up to 5 results
|